Torna al catalogo

SL-8 DEB

AttivoLEO
NORAD 6210·DEBRIS·🇷🇺 Russia

Lanciato Sep 29, 1972 da Plesetsk Cosmodrome

Loading…

Prossimi Passaggi (prossime 24 ore)

TLE

AggiornatoSource: Space-Track

Epoca: Sep 14, 2026, 14:43 UTC

1 06210U 72074C   26257.61337269 -.00000065  00000-0  16972-4 0  9999
2 06210  65.8274  23.1097 0010545 345.8722  25.7188 13.73653410704781

Traccia SL-8 DEB in tempo reale con AllMySat

Download on the App Store